Tampa Knight Airport, FL

2:24 PM EDT on July 22, 2017 (GMT -0400)
Knight

Weather History for KTPF - October, 2012

Change the Weather History Date:

Thursday, October 25, 2012

  Actual Average (KTPA) Record (KTPA)
Temperature  
Mean Temperature 76 °F -  
Max Temperature 82 °F 80 °F 89 °F (1919)
Min Temperature 69 °F 64 °F 46 °F (1909)
Cooling Degree Days 10    
Growing Degree Days 26 (Base 50)    
Moisture  
Dew Point 66 °F    
Average Humidity 74    
Maximum Humidity 88    
Minimum Humidity 54    
Precipitation  
Precipitation 0.00 in - - ()
Sea Level Pressure  
Sea Level Pressure 29.87 in    
Wind  
Wind Speed 11 mph (NE)    
Max Wind Speed 21 mph    
Max Gust Speed 28 mph    
Visibility 10 miles    
Events Rain    
Averages and records for this station are not official NWS values.
T = Trace of Precipitation, MM = Missing Value Source: NWS Daily Summary

Daily Weather History Graph

Daily Weather History Graph

Search for Another Location

Airport or City:

Trip Planner

Search our weather history database for the weather conditions in past years. The results will help you decide how hot, cold, wet, or windy it might be!

Date:

Astronomy

Oct. 25, 2012 Rise Set
Actual Time 7:36 AM EDT 6:50 PM EDT
Civil Twilight 7:12 AM EDT 7:14 PM EDT
Nautical Twilight 6:45 AM EDT 7:42 PM EDT
Astronomical Twilight 6:17 AM EDT 8:09 PM EDT
Moon 4:20 PM EDT (10/25) 3:50 AM EDT (10/25)
Length of Visible Light 12h 02m
Length of Day
11h 14m
Waxing Gibbous, 84% of the Moon is Illuminated
Oct 25
Waxing Gibbous
Oct 29
Full
Nov 6
Last Quarter
Nov 13
New
Nov 20
First Quarter

Hourly Weather History & Observations

Time (EDT) Temp. Heat Index Dew Point Humidity Pressure Visibility Wind Dir Wind Speed Gust Speed Precip Events Conditions
12:15 AM 71.6 °F - 64.4 °F 78% 29.95 in 10.0 mi NE 9.2 mph - N/A   Clear
12:35 AM 71.6 °F - 64.4 °F 78% 29.94 in 10.0 mi NNE 8.1 mph - N/A   Clear
12:55 AM 71.6 °F - 64.4 °F 78% 29.93 in 10.0 mi NNE 8.1 mph - N/A   Clear
1:35 AM 71.6 °F - 64.4 °F 78% 29.92 in 10.0 mi NE 9.2 mph - N/A   Clear
1:55 AM 71.6 °F - 64.4 °F 78% 29.92 in 10.0 mi NE 10.4 mph - N/A   Mostly Cloudy
2:15 AM 71.6 °F - 64.4 °F 78% 29.91 in 10.0 mi NE 9.2 mph - N/A   Mostly Cloudy
2:35 AM 71.6 °F - 64.4 °F 78% 29.90 in 10.0 mi NE 8.1 mph - N/A   Clear
2:55 AM 71.6 °F - 64.4 °F 78% 29.89 in 10.0 mi NE 8.1 mph - N/A   Clear
3:35 AM 71.6 °F - 64.4 °F 78% 29.88 in 10.0 mi NE 10.4 mph - N/A   Clear
3:55 AM 71.6 °F - 64.4 °F 78% 29.88 in 10.0 mi NE 10.4 mph - N/A   Clear
4:15 AM 69.8 °F - 64.4 °F 83% 29.88 in 10.0 mi NE 8.1 mph - N/A   Clear
4:35 AM 69.8 °F - 64.4 °F 83% 29.87 in 10.0 mi NE 9.2 mph - N/A   Scattered Clouds
4:55 AM 69.8 °F - 64.4 °F 83% 29.87 in 10.0 mi NNE 9.2 mph - N/A   Scattered Clouds
5:15 AM 71.6 °F - 64.4 °F 78% 29.87 in 10.0 mi NE 9.2 mph - N/A   Mostly Cloudy
5:35 AM 71.6 °F - 64.4 °F 78% 29.88 in 10.0 mi NE 9.2 mph - N/A   Overcast
5:55 AM 71.6 °F - 64.4 °F 78% 29.88 in 10.0 mi NNE 8.1 mph - N/A   Mostly Cloudy
6:15 AM 71.6 °F - 64.4 °F 78% 29.88 in 10.0 mi NNE 8.1 mph - N/A   Mostly Cloudy
6:35 AM 71.6 °F - 66.2 °F 83% 29.88 in 10.0 mi NE 9.2 mph - N/A   Overcast
6:55 AM 71.6 °F - 64.4 °F 78% 29.88 in 10.0 mi NNE 10.4 mph - N/A   Scattered Clouds
7:15 AM 71.6 °F - 66.2 °F 83% 29.89 in 10.0 mi NE 10.4 mph - N/A   Clear
7:55 AM 71.6 °F - 66.2 °F 83% 29.90 in 10.0 mi NE 12.7 mph - N/A   Overcast
8:15 AM 71.6 °F - 66.2 °F 83% 29.90 in 10.0 mi NE 10.4 mph - N/A   Overcast
8:35 AM 71.6 °F - 68.0 °F 88% 29.91 in 10.0 mi NE 12.7 mph 19.6 mph N/A   Overcast
8:55 AM 73.4 °F - 68.0 °F 83% 29.91 in 10.0 mi NE 12.7 mph 18.4 mph N/A   Overcast
9:35 AM 75.2 °F - 68.0 °F 78% 29.91 in 10.0 mi NE 13.8 mph 18.4 mph N/A   Scattered Clouds
10:15 AM 77.0 °F - 68.0 °F 74% 29.91 in 10.0 mi ENE 12.7 mph 18.4 mph N/A   Scattered Clouds
10:35 AM 77.0 °F - 68.0 °F 74% 29.91 in 10.0 mi NE 12.7 mph - N/A   Overcast
10:55 AM 77.0 °F - 68.0 °F 74% 29.91 in 10.0 mi NE 12.7 mph - N/A   Overcast
11:15 AM 78.8 °F - 68.0 °F 69% 29.91 in 10.0 mi NE 12.7 mph 25.3 mph N/A   Overcast
11:35 AM 78.8 °F - 69.8 °F 74% 29.90 in 10.0 mi ENE 11.5 mph 18.4 mph N/A   Scattered Clouds
11:55 AM 80.6 °F 83.2 °F 68.0 °F 65% 29.90 in 10.0 mi ENE 13.8 mph 18.4 mph N/A   Clear
12:15 PM 80.6 °F 83.9 °F 69.8 °F 70% 29.88 in 10.0 mi NE 11.5 mph - N/A   Clear
12:35 PM 80.6 °F 83.9 °F 69.8 °F 70% 29.88 in 10.0 mi NE 11.5 mph - N/A   Clear
1:15 PM 82.4 °F 84.6 °F 66.2 °F 58% 29.85 in 10.0 mi East 12.7 mph 21.9 mph N/A   Scattered Clouds
1:35 PM 82.4 °F 83.9 °F 64.4 °F 54% 29.84 in 10.0 mi ENE 12.7 mph 20.7 mph N/A   Scattered Clouds
1:55 PM 82.4 °F 84.6 °F 66.2 °F 58% 29.83 in 10.0 mi NE 13.8 mph 19.6 mph N/A   Mostly Cloudy
2:15 PM 82.4 °F 83.9 °F 64.4 °F 54% 29.82 in 10.0 mi ENE 15.0 mph 19.6 mph N/A   Scattered Clouds
2:35 PM 82.4 °F 83.9 °F 64.4 °F 54% 29.82 in 10.0 mi NE 16.1 mph 19.6 mph N/A   Scattered Clouds
2:55 PM 82.4 °F 83.9 °F 64.4 °F 54% 29.82 in 10.0 mi ENE 12.7 mph 19.6 mph N/A   Scattered Clouds
3:15 PM 82.4 °F 83.9 °F 64.4 °F 54% 29.81 in 10.0 mi ENE 13.8 mph 19.6 mph N/A   Scattered Clouds
3:35 PM 82.4 °F 83.9 °F 64.4 °F 54% 29.81 in 10.0 mi ENE 12.7 mph - N/A   Scattered Clouds
4:15 PM 82.4 °F 83.9 °F 64.4 °F 54% 29.81 in 10.0 mi ENE 12.7 mph 18.4 mph N/A   Scattered Clouds
4:35 PM 80.6 °F 82.3 °F 64.4 °F 58% 29.81 in 10.0 mi ENE 18.4 mph 27.6 mph N/A   Scattered Clouds
4:55 PM 80.6 °F 82.3 °F 64.4 °F 58% 29.81 in 10.0 mi NE 17.3 mph 21.9 mph N/A   Clear
5:15 PM 80.6 °F 82.3 °F 64.4 °F 58% 29.82 in 10.0 mi NE 20.7 mph - N/A   Clear
5:35 PM 78.8 °F - 66.2 °F 65% 29.82 in 10.0 mi NE 13.8 mph 25.3 mph N/A   Clear
5:55 PM 78.8 °F - 66.2 °F 65% 29.83 in 10.0 mi NNE 13.8 mph 21.9 mph N/A   Scattered Clouds
6:15 PM 77.0 °F - 66.2 °F 69% 29.85 in 10.0 mi NE 18.4 mph 21.9 mph N/A   Overcast
6:35 PM 77.0 °F - 66.2 °F 69% 29.85 in 10.0 mi NE 13.8 mph 23.0 mph N/A   Mostly Cloudy
6:55 PM 75.2 °F - 66.2 °F 73% 29.85 in 10.0 mi NE 18.4 mph 23.0 mph N/A   Clear
7:15 PM 73.4 °F - 68.0 °F 83% 29.85 in 7.0 mi NE 16.1 mph 26.5 mph N/A Rain Light Rain
7:35 PM 71.6 °F - 68.0 °F 88% 29.85 in 10.0 mi NE 8.1 mph - N/A   Mostly Cloudy
8:35 PM 71.6 °F - 68.0 °F 88% 29.86 in 10.0 mi NNE 5.8 mph - N/A   Clear
8:55 PM 71.6 °F - 68.0 °F 88% 29.85 in 10.0 mi North 8.1 mph - N/A   Clear
9:15 PM 73.4 °F - 68.0 °F 83% 29.85 in 10.0 mi North 6.9 mph - N/A   Clear
9:35 PM 73.4 °F - 68.0 °F 83% 29.85 in 10.0 mi NNE 9.2 mph - N/A   Scattered Clouds
9:55 PM 73.4 °F - 68.0 °F 83% 29.86 in 10.0 mi NNE 5.8 mph - N/A   Scattered Clouds
10:15 PM 73.4 °F - 68.0 °F 83% 29.86 in 10.0 mi NNE 8.1 mph - N/A   Scattered Clouds
10:55 PM 73.4 °F - 68.0 °F 83% 29.85 in 10.0 mi NNE 9.2 mph - N/A   Overcast
11:35 PM 73.4 °F - 68.0 °F 83% 29.84 in 10.0 mi NNE 8.1 mph - N/A   Clear
11:55 PM 73.4 °F - 68.0 °F 83% 29.83 in 10.0 mi North 6.9 mph - N/A   Clear